Погода в Александровке

Россия / Челябинская область     54°46′10″N   61°30′30″E
темп.,
°C
ветер,
м/с
пор.,
м/с
влажн.,
%
обл.,
%
осадки,
мм/ч
давл.,
гПа
погр.,
м
12 мая, ср
ср1223:00+16зсз1133100 0.0 102711
02:00+13з22390 0.0 102813
05:00+11з33434 0.0 102819
08:00+17зсз33385 0.0 1028204
11:00+23сз33265 0.0 10281076
14:00+25ссз343144 0.0 10272449
17:00+25сз34296 0.0 10262623
20:00+22св124375 0.0 102615
13 мая, чт
чт1323:00+17всв335371 0.0 102732
02:00+15вюв235729 0.0 102725
05:00+14зюз11625 0.0 102711
08:00+19с114984 0.0 1028201
11:00+23сз333634 0.0 10271340
14:00+26ссз453014 0.0 10261902
17:00+27ссз45295 0.0 10252074
20:00+23с22425 0.0 102511
14 мая, пт
пт1423:00+19сз00475 0.0 102611
02:00+17юз11515 0.0 102711
05:00+16зюз22565 0.0 102711
08:00+21юз22460 0.0 1028197
11:00+26юз34340 0.0 10271028
14:00+28зюз35280 0.0 10252649
17:00+29зюз45265 0.0 10253087
20:00+24юз33395 0.0 102438
15 мая, сб
сб1523:00+21з353847 0.0 102471
02:00+18ссз355094 0.0 102460
05:00+17сз334952 0.0 102543
08:00+22сз234482 0.1 1025223
11:00+26зюз343599 0.1 10241321
14:00+28з452945 0.0 10232203
17:00+29зюз462815 0.0 10222549
20:00+25зсз33415 0.0 102141
16 мая, вс
вс1623:00+20зсз34465 0.0 102151
02:00+18зсз34535 0.0 102258
05:00+17зсз335520 0.0 102242
08:00+22зсз35445 0.0 1023246
11:00+27сз33297 0.0 10221267
14:00+30зсз34235 0.0 10212191
17:00+30з33225 0.0 10202738
20:00+26юз33340 0.0 102021